TimeEDT,TemperatureF,Dew PointF,Humidity,Sea Level PressureIn,VisibilityMPH,Wind Direction,Wind SpeedMPH,Gust SpeedMPH,PrecipitationIn,Events,Conditions,WindDirDegrees,DateUTC
12:53 AM,72.0,66.9,84,30.12,10.0,SSE,5.8,-,N/A,,Clear,150,2013-05-18 04:53:00
1:53 AM,71.1,66.9,87,30.10,10.0,South,4.6,-,N/A,,Clear,180,2013-05-18 05:53:00
2:53 AM,70.0,66.0,87,30.10,10.0,South,3.5,-,N/A,,Clear,170,2013-05-18 06:53:00
3:53 AM,70.0,66.0,87,30.09,10.0,South,3.5,-,N/A,,Clear,180,2013-05-18 07:53:00
4:53 AM,69.1,64.9,87,30.10,10.0,SSE,4.6,-,N/A,,Clear,160,2013-05-18 08:53:00
5:53 AM,66.9,64.0,90,30.10,8.0,SSE,3.5,-,N/A,,Clear,150,2013-05-18 09:53:00
6:53 AM,66.0,64.0,93,30.11,7.0,SSE,3.5,-,N/A,,Clear,150,2013-05-18 10:53:00
7:53 AM,72.0,66.9,84,30.14,10.0,Calm,Calm,-,N/A,,Clear,0,2013-05-18 11:53:00
8:53 AM,75.9,68.0,76,30.15,10.0,SSW,6.9,-,N/A,,Clear,200,2013-05-18 12:53:00
9:53 AM,80.1,66.9,64,30.14,10.0,SSW,6.9,-,N/A,,Clear,200,2013-05-18 13:53:00
10:53 AM,82.0,66.0,58,30.13,10.0,South,3.5,-,N/A,,Partly Cloudy,180,2013-05-18 14:53:00
11:53 AM,82.9,66.9,58,30.12,10.0,Variable,5.8,-,N/A,,Scattered Clouds,0,2013-05-18 15:53:00
12:53 PM,84.0,69.1,61,30.12,10.0,ESE,9.2,18.4,N/A,,Partly Cloudy,110,2013-05-18 16:53:00
1:53 PM,84.9,69.1,59,30.12,10.0,ESE,10.4,-,N/A,,Partly Cloudy,110,2013-05-18 17:53:00
3:53 PM,84.9,64.0,49,30.07,10.0,SE,11.5,-,N/A,,Clear,130,2013-05-18 19:53:00
4:53 PM,84.0,64.0,51,30.05,10.0,ESE,12.7,18.4,N/A,,Clear,120,2013-05-18 20:53:00
5:53 PM,79.0,66.0,64,30.06,10.0,SE,9.2,-,N/A,,Clear,130,2013-05-18 21:53:00
6:53 PM,78.1,68.0,71,30.05,10.0,ESE,10.4,20.7,0.00,Rain,Light Rain,120,2013-05-18 22:53:00
7:53 PM,77.0,69.1,76,30.06,10.0,SE,9.2,-,0.00,,Scattered Clouds,130,2013-05-18 23:53:00
8:53 PM,77.0,69.1,76,30.08,10.0,SE,5.8,-,N/A,,Mostly Cloudy,130,2013-05-19 00:53:00
9:53 PM,75.9,71.1,85,30.11,9.0,Variable,4.6,-,0.01,Rain,Light Rain,0,2013-05-19 01:53:00
10:05 PM,75.2,71.6,89,30.11,8.0,East,4.6,-,0.01,Rain,Light Rain,100,2013-05-19 02:05:00
10:53 PM,75.0,71.1,87,30.12,5.0,SSE,5.8,-,0.07,Rain,Light Rain,150,2013-05-19 02:53:00
11:53 PM,75.0,71.1,87,30.09,10.0,South,8.1,-,0.05,,Mostly Cloudy,180,2013-05-19 03:53:00